When you browse on this site, cookies collect data to enhance your experience and personalize the content and advertising you see.
Visit our Privacy Policy to learn more. By continuing to use the site, you agree to this use of cookies and data.
  • en France
  • Liste des pays
  • À 7 jours
  • Température de l'eau
  • Carte satellitaire
  • Carte météo
  • Widgets météo
  • user-avatar
    Se connecter

    Météo par heure à Ali Bayramli

    Ce jour, 22 Avril, Lundi

    Heure Température Précipitation Vent Pression Humidité
    00:00 +7°C° 0 mm 3 m/s 764 mmHg 75%
    01:00 +7°C° 0 mm 3 m/s 764 mmHg 75%
    02:00 +7°C° 0 mm 3 m/s 764 mmHg 75%
    03:00 +5°C° 0 mm 3 m/s 764 mmHg 76%
    04:00 +6°C° 0 mm 4 m/s 764 mmHg 74%
    05:00 +6°C° 0 mm 4 m/s 764 mmHg 71%
    06:00 +6°C° 0 mm 4 m/s 764 mmHg 69%
    07:00 +8°C° 0 mm 5 m/s 764 mmHg 64%
    08:00 +9°C° 0 mm 6 m/s 763 mmHg 58%
    09:00 +11°C° 0 mm 6 m/s 763 mmHg 53%
    10:00 +11°C° 0 mm 7 m/s 763 mmHg 52%
    11:00 +11°C° 0 mm 8 m/s 763 mmHg 52%
    12:00 +12°C° 0 mm 8 m/s 763 mmHg 52%
    13:00 +11°C° 0.1 mm 9 m/s 763 mmHg 53%
    14:00 +11°C° 0.1 mm 9 m/s 763 mmHg 54%
    15:00 +9°C° 0.1 mm 10 m/s 762 mmHg 55%
    16:00 +10°C° 0.1 mm 9 m/s 763 mmHg 52%
    17:00 +9°C° 0.1 mm 8 m/s 763 mmHg 50%
    18:00 +9°C° 0.1 mm 8 m/s 763 mmHg 47%
    19:00 +9°C° 0.1 mm 8 m/s 763 mmHg 45%
    20:00 +9°C° 0.1 mm 7 m/s 764 mmHg 43%
    21:00 +9°C° 0.1 mm 7 m/s 764 mmHg 41%
    22:00 +8°C° 0.3 mm 6 m/s 764 mmHg 46%
    23:00 +8°C° 0.3 mm 5 m/s 765 mmHg 50%

    Demain, 23 Avril, Mardi

    Heure Température Précipitation Vent Pression Humidité
    00:00 +9°C° 0.3 mm 3 m/s 765 mmHg 55%
    01:00 +7°C° 0.2 mm 4 m/s 765 mmHg 62%
    02:00 +7°C° 0.2 mm 4 m/s 765 mmHg 70%
    03:00 +6°C° 0.2 mm 5 m/s 765 mmHg 78%
    04:00 +6°C° 0.2 mm 5 m/s 765 mmHg 80%
    05:00 +6°C° 0.2 mm 5 m/s 766 mmHg 81%
    06:00 +6°C° 0.2 mm 5 m/s 766 mmHg 83%
    07:00 +7°C° 0 mm 5 m/s 766 mmHg 76%
    08:00 +8°C° 0 mm 5 m/s 767 mmHg 68%
    09:00 +9°C° 0 mm 5 m/s 767 mmHg 61%
    10:00 +12°C° 0 mm 4 m/s 767 mmHg 53%
    11:00 +13°C° 0 mm 4 m/s 767 mmHg 45%
    12:00 +16°C° 0 mm 3 m/s 767 mmHg 37%
    13:00 +16°C° 0 mm 3 m/s 767 mmHg 36%
    14:00 +16°C° 0 mm 3 m/s 767 mmHg 34%
    15:00 +16°C° 0 mm 3 m/s 767 mmHg 33%
    16:00 +16°C° 0 mm 3 m/s 767 mmHg 35%
    17:00 +14°C° 0 mm 3 m/s 768 mmHg 37%
    18:00 +13°C° 0 mm 4 m/s 768 mmHg 39%
    19:00 +12°C° 0 mm 3 m/s 768 mmHg 43%
    20:00 +11°C° 0 mm 3 m/s 769 mmHg 47%
    21:00 +10°C° 0 mm 3 m/s 769 mmHg 51%
    22:00 +10°C° 0 mm 2 m/s 769 mmHg 53%
    23:00 +9°C° 0 mm 2 m/s 769 mmHg 55%

    Après-demain, 24 Avril, Mercredi

    Heure Température Précipitation Vent Pression Humidité
    00:00 +9°C° 0 mm 2 m/s 769 mmHg 57%
    01:00 +9°C° 0 mm 1 m/s 769 mmHg 59%
    02:00 +9°C° 0 mm 1 m/s 769 mmHg 60%
    03:00 +8°C° 0 mm 1 m/s 769 mmHg 61%
    04:00 +9°C° 0 mm 1 m/s 769 mmHg 60%
    05:00 +9°C° 0 mm 1 m/s 769 mmHg 59%
    06:00 +10°C° 0 mm 1 m/s 769 mmHg 59%
    07:00 +12°C° 0 mm 1 m/s 769 mmHg 51%
    08:00 +13°C° 0 mm 2 m/s 770 mmHg 44%
    09:00 +15°C° 0 mm 2 m/s 770 mmHg 36%
    10:00 +16°C° 0 mm 2 m/s 769 mmHg 34%
    11:00 +17°C° 0 mm 2 m/s 769 mmHg 32%
    12:00 +18°C° 0 mm 2 m/s 769 mmHg 30%
    13:00 +18°C° 0 mm 3 m/s 768 mmHg 30%
    14:00 +18°C° 0 mm 3 m/s 768 mmHg 30%
    15:00 +19°C° 0 mm 4 m/s 767 mmHg 30%
    16:00 +18°C° 0 mm 4 m/s 767 mmHg 32%
    17:00 +16°C° 0 mm 5 m/s 767 mmHg 35%
    18:00 +15°C° 0 mm 6 m/s 767 mmHg 37%
    19:00 +14°C° 0 mm 5 m/s 767 mmHg 40%
    20:00 +13°C° 0 mm 4 m/s 768 mmHg 43%
    21:00 +12°C° 0 mm 4 m/s 768 mmHg 46%
    22:00 +11°C° 0 mm 3 m/s 768 mmHg 50%
    23:00 +11°C° 0 mm 3 m/s 768 mmHg 53%

    25 Avril, Jeudi

    Heure Température Précipitation Vent Pression Humidité
    00:00 +12°C° 0 mm 2 m/s 767 mmHg 57%
    01:00 +12°C° 0 mm 2 m/s 767 mmHg 60%
    02:00 +11°C° 0 mm 1 m/s 767 mmHg 62%
    03:00 +11°C° 0 mm 1 m/s 767 mmHg 65%
    04:00 +11°C° 0 mm 1 m/s 767 mmHg 64%
    05:00 +12°C° 0 mm 1 m/s 767 mmHg 63%
    06:00 +12°C° 0 mm 1 m/s 768 mmHg 62%
    07:00 +13°C° 0 mm 1 m/s 768 mmHg 56%
    08:00 +14°C° 0 mm 1 m/s 768 mmHg 51%
    09:00 +15°C° 0 mm 1 m/s 768 mmHg 45%
    10:00 +16°C° 0 mm 2 m/s 768 mmHg 44%
    11:00 +17°C° 0 mm 3 m/s 768 mmHg 43%
    12:00 +18°C° 0 mm 4 m/s 768 mmHg 41%
    13:00 +16°C° 0 mm 5 m/s 768 mmHg 44%
    14:00 +16°C° 0 mm 5 m/s 768 mmHg 47%
    15:00 +16°C° 0 mm 6 m/s 767 mmHg 51%
    16:00 +15°C° 0 mm 6 m/s 768 mmHg 52%
    17:00 +15°C° 0 mm 5 m/s 768 mmHg 54%
    18:00 +14°C° 0 mm 5 m/s 768 mmHg 56%
    19:00 +13°C° 0 mm 4 m/s 768 mmHg 58%
    20:00 +12°C° 0 mm 3 m/s 768 mmHg 61%
    21:00 +12°C° 0 mm 3 m/s 769 mmHg 64%
    22:00 +12°C° 0 mm 2 m/s 768 mmHg 65%
    23:00 +12°C° 0 mm 2 m/s 768 mmHg 67%

    26 Avril, Vendredi

    Heure Température Précipitation Vent Pression Humidité
    00:00 +11°C° 0 mm 1 m/s 768 mmHg 68%
    01:00 +11°C° 0 mm 1 m/s 767 mmHg 68%
    02:00 +10°C° 0 mm 2 m/s 767 mmHg 67%
    03:00 +10°C° 0 mm 2 m/s 767 mmHg 67%
    04:00 +11°C° 0 mm 1 m/s 767 mmHg 65%
    05:00 +12°C° 0 mm 1 m/s 767 mmHg 63%
    06:00 +12°C° 0 mm 1 m/s 767 mmHg 61%
    07:00 +14°C° 0 mm 1 m/s 767 mmHg 55%
    08:00 +16°C° 0 mm 2 m/s 767 mmHg 49%
    09:00 +17°C° 0 mm 2 m/s 768 mmHg 43%
    10:00 +19°C° 0 mm 2 m/s 767 mmHg 40%
    11:00 +20°C° 0 mm 2 m/s 767 mmHg 37%
    12:00 +21°C° 0 mm 2 m/s 767 mmHg 34%
    13:00 +21°C° 0 mm 4 m/s 767 mmHg 37%
    14:00 +20°C° 0 mm 5 m/s 766 mmHg 40%
    15:00 +20°C° 0 mm 7 m/s 766 mmHg 43%
    16:00 +18°C° 0 mm 7 m/s 766 mmHg 46%
    17:00 +17°C° 0 mm 6 m/s 766 mmHg 49%
    18:00 +16°C° 0 mm 6 m/s 766 mmHg 51%
    19:00 +15°C° 0 mm 5 m/s 767 mmHg 53%
    20:00 +14°C° 0 mm 4 m/s 767 mmHg 56%
    21:00 +13°C° 0 mm 3 m/s 767 mmHg 58%
    22:00 +13°C° 0 mm 3 m/s 767 mmHg 59%
    23:00 +14°C° 0 mm 2 m/s 766 mmHg 60%

    27 Avril, Samedi

    Heure Température Précipitation Vent Pression Humidité
    00:00 +13°C° 0 mm 2 m/s 766 mmHg 61%
    01:00 +13°C° 0 mm 2 m/s 766 mmHg 63%
    02:00 +12°C° 0 mm 2 m/s 766 mmHg 65%
    03:00 +12°C° 0 mm 1 m/s 765 mmHg 66%
    04:00 +12°C° 0 mm 1 m/s 765 mmHg 66%
    05:00 +13°C° 0 mm 1 m/s 765 mmHg 66%
    06:00 +13°C° 0 mm 1 m/s 766 mmHg 65%
    07:00 +15°C° 0 mm 2 m/s 766 mmHg 59%
    08:00 +16°C° 0 mm 2 m/s 765 mmHg 52%
    09:00 +17°C° 0 mm 3 m/s 765 mmHg 46%
    10:00 +19°C° 0 mm 3 m/s 765 mmHg 43%
    11:00 +20°C° 0 mm 3 m/s 765 mmHg 39%
    12:00 +21°C° 0 mm 4 m/s 764 mmHg 36%
    13:00 +21°C° 0 mm 4 m/s 764 mmHg 35%
    14:00 +21°C° 0 mm 4 m/s 763 mmHg 35%
    15:00 +21°C° 0 mm 5 m/s 763 mmHg 34%
    16:00 +20°C° 0 mm 5 m/s 763 mmHg 37%
    17:00 +19°C° 0 mm 5 m/s 763 mmHg 40%
    18:00 +16°C° 0 mm 6 m/s 763 mmHg 43%
    19:00 +15°C° 0 mm 5 m/s 763 mmHg 49%
    20:00 +14°C° 0 mm 4 m/s 764 mmHg 55%
    21:00 +13°C° 0 mm 3 m/s 764 mmHg 61%
    22:00 +14°C° 0 mm 2 m/s 764 mmHg 66%
    23:00 +13°C° 0 mm 2 m/s 764 mmHg 71%
    Voir plus